Regional Weather Roundup
Issued by NWS

Home | Current Version | Previous Version | Graphics & Text | Print | Product List | Glossary On
Versions: 1 2 3 4 5 6 7 8 9 10 11 12 13 14 15 16 17 18 19 20 21 22 23 24 25 26 27 28 29 30 31 32 33 34 35 36 37 38 39 40 41 42 43 44 45 46 47 48 49 50
000
ASUS43 KOAX 060210
RWRNE

WEATHER ROUNDUP FOR NEBRASKA
NATIONAL WEATHER SERVICE OMAHA NE
900 PM CDT THU MAY 05 2016

NOTES: SATELLITE DATA IS BEING USED TO AUGMENT CLOUD COVER ABOVE
       12000 FEET.
       "FAIR" INDICATES FEW OR NO CLOUDS BELOW 12,000 FEET WITH NO
       SIGNIFICANT WEATHER AND/OR OBSTRUCTIONS TO VISIBILITY.

  * THESE STATIONS DO NOT REPORT WEATHER SUCH AS RAIN...SNOW OR FOG.

NEZ001>004-019>022-054>056-060300-
NEBRASKA PANHANDLE

CITY           SKY/WX    TMP DP  RH WIND       PRES   REMARKS
SCOTTSBLUFF    CLOUDY    74  41  30 SE7       29.93R
ALLIANCE       PTCLDY    62  47  57 SE9       29.93R
CHADRON        PTCLDY    68  49  50 SW6       29.87S
KIMBALL        CLOUDY    63  42  46 SE9       30.00S
SIDNEY         CLOUDY    61  46  57 S9        29.99R
$$

NEZ057>060-069>072-079>082-060300-
SOUTHWEST NEBRASKA

CITY           SKY/WX    TMP DP  RH WIND       PRES   REMARKS
NORTH PLATTE   CLEAR     69  47  45 S9        29.97R
IMPERIAL       CLOUDY    66  49  54 S13       29.98R
MCCOOK         CLEAR     68  50  52 SE8       29.98S
OGALLALA       CLOUDY    69  44  40 SE10      29.95S
$$

NEZ005>010-023>029-035>040-094-060300-
NORTH CENTRAL NEBRASKA

CITY           SKY/WX    TMP DP  RH WIND       PRES   REMARKS
VALENTINE      CLOUDY    75  45  34 S15       29.87S
AINSWORTH      CLEAR     71  46  40 S13       29.91S
BROKEN BOW     CLEAR     69  50  50 S10       29.98R
O`NEILL        CLEAR     68  50  52 S9        29.95S
ORD            CLEAR     63  50  62 S6        29.96R
THEDFORD       CLEAR     74  47  37 S13       29.95S
$$

NEZ041-046>049-061>064-073>077-083>087-060300-
SOUTH CENTRAL NEBRASKA

CITY           SKY/WX    TMP DP  RH WIND       PRES   REMARKS
GRAND ISLAND   CLEAR     68  44  42 S7        29.99R
AURORA         CLEAR     71  40  32 S7        29.99R
HASTINGS       CLEAR     69  44  40 S6        30.00R
HEBRON         CLEAR     65  45  48 S5        30.01R
HOLDREGE       CLEAR     67  47  48 S7        30.00S
KEARNEY *      CLEAR     64  46  52 S9        30.01R
YORK           CLEAR     70  37  30 S8        29.99S
$$

NEZ011>018-030>034-042>045-060300-
NORTHEAST NEBRASKA

CITY           SKY/WX    TMP DP  RH WIND       PRES   REMARKS
NORFOLK        CLEAR     63  41  44 S9        29.96R
ALBION         CLEAR     64  45  48 CALM      29.97S
BLAIR          CLEAR     70  41  35 SE5       30.00R
COLUMBUS *     CLEAR     70  39  32 SE5       29.99R
FREMONT        CLEAR     66  42  41 SE7       29.99S
TEKAMAH        CLEAR     62  50  64 S9        29.98R
WAYNE          CLEAR     60  46  58 S9        29.97R
$$

NEZ050>053-065>068-078-088>093-060300-
SOUTHEAST NEBRASKA

CITY           SKY/WX    TMP DP  RH WIND       PRES   REMARKS
LINCOLN        CLEAR     66  44  45 SE6       30.00R
OMAHA EPPLEY   MOCLDY    66  46  48 SE6       29.99S
BEATRICE       CLEAR     69  43  38 SE6       30.01R
FALLS CITY     CLEAR     66  41  40 SE5       30.01R
NEBRASKA CITY  CLEAR     68  36  31 SE5       30.01S
PLATTSMOUTH    CLEAR     69  41  36 SE5       30.01R
$$

NEZ044-045-051>053-067-060300-
OMAHA AREA

CITY           SKY/WX    TMP DP  RH WIND       PRES   REMARKS
OMAHA EPPLEY   MOCLDY    66  46  48 SE6       29.99S
BLAIR          CLEAR     70  41  35 SE5       30.00R
FREMONT        CLEAR     66  42  41 SE7       29.99S
MILLARD        CLEAR     67  44  43 CALM      29.99S
OFFUTT AFB     CLEAR     60  53  76 SE2       29.99R
PLATTSMOUTH    CLEAR     69  41  36 SE5       30.01R
WAHOO          FAIR      64  43  46 SE9       29.99R
$$




USA.gov is the U.S. government's official web portal to all federal, state and local government web resources and services.